This demonstration page uses our WeatherBlox Daily Observations layout. Learn more.

Left ArrowRight Arrow

30.21309, -93.2044

Hourly Observations for October 6, 2015

Temp ( °F °C ) Dew Point ( °F °C ) Humidity (%) Winds ( mph kmh ) Pressure ( in mb ) Visibility ( mi km ) Precip ( " mm )
12:15 am 00:15 Clear 69 20.4 62 16.7 79 79 NNW 5 7 30.03 1017 10 16 0.00 0.00
12:35 am 00:35 Clear 69 20.3 62 16.6 79 79 N 6 9 30.03 1017 10 16 0.00 0.00
12:55 am 00:55 Clear 69 20.3 62 16.6 79 79 N 6 9 30.03 1017 10 16 0.00 0.00
1:15 am 01:15 Clear 68 20.1 62 16.6 80 80 N 7 11 30.00 1016 10 16 0.00 0.00
1:35 am 01:35 Clear 68 20.1 62 16.5 80 80 N 6 9 30.00 1016 10 16 0.00 0.00
1:55 am 01:55 Clear 68 19.9 62 16.4 80 80 N 7 11 30.00 1016 10 16 0.00 0.00
2:15 am 02:15 Clear 67 19.6 61 16.3 81 81 N 7 11 30.00 1016 10 16 0.00 0.00
2:35 am 02:35 Clear 67 19.6 61 16.3 81 81 N 7 11 30.00 1016 10 16 0.00 0.00
2:55 am 02:55 Clear 67 19.5 61 16.2 81 81 N 7 11 30.00 1016 10 16 0.00 0.00
3:15 am 03:15 Clear 67 19.3 61 16.2 82 82 N 6 9 30.00 1016 10 16 0.00 0.00
3:35 am 03:35 Clear 66 19.1 61 16.2 83 83 N 5 7 30.00 1016 10 16 0.00 0.00
3:55 am 03:55 Clear 66 18.9 61 16.2 84 84 N 5 7 30.00 1016 10 16 0.00 0.00
4:15 am 04:15 Clear 66 18.7 61 16.2 85 85 N 6 9 30.00 1016 10 16 0.00 0.00
4:35 am 04:35 Clear 66 18.8 61 16.2 85 85 N 5 7 30.00 1016 10 16 0.00 0.00
4:55 am 04:55 Clear 65 18.5 61 16.1 86 86 N 6 9 30.00 1016 10 16 0.00 0.00
5:15 am 05:15 Clear 65 18.3 61 16.1 87 87 N 5 7 30.03 1017 10 16 0.00 0.00
6:00 am 06:00 Mostly Clear 64 18 61 16 88 88 N 8 13 30.03 1017 10 16 0.00 0.00
6:50 am 06:50 Mostly Clear 64 18 61 16 88 88 N 8 13 30.03 1017 10 16 0.00 0.00
7:55 am 07:55 Mostly Sunny 68 20 63 17 83 83 N 7 11 30.06 1018 10 16 0.00 0.00
8:55 am 08:55 Mostly Sunny 72 22 63 17 73 73 N 9 15 30.09 1019 10 16 0.00 0.00
11:45 am 11:45 Mostly Sunny 82 28 66 19 58 58 NE 8 13 30.09 1019 10 16 0.00 0.00
12:50 pm 12:50 Mostly Sunny 82 28 64 18 55 55 N 8 13 30.06 1018 10 16 0.00 0.00
8:50 pm 20:50 Mostly Clear 73 23 68 20 83 83 Calm 30.00 1016 10 16 0.00 0.00
9:50 pm 21:50 Mostly Clear 72 22 68 20 88 88 Calm 30.00 1016 10 16 0.00 0.00
10:15 pm 22:15 Clear 72 22.2 68 19.9 87 87 Calm 30.03 1017 10 16 0.00 0.00
10:35 pm 22:35 Clear 71 21.8 67 19.7 88 88 NNW 3 6 30.03 1017 10 16 0.00 0.00
10:55 pm 22:55 Clear 71 21.8 67 19.5 87 87 Calm 30.03 1017 10 16 0.00 0.00
11:15 pm 23:15 Clear 72 22 66 19 83 83 Calm 30.03 1017 10 16 0.00 0.00
11:35 pm 23:35 Clear 70 21.1 67 19.2 89 89 Calm 30.03 1017 10 16 0.00 0.00
11:55 pm 23:55 Clear 70 21.2 66 19.1 88 88 Calm 30.03 1017 10 16 0.00 0.00

Powered by AerisWeather